Flag for Canada Weather past 2 weeks in Creighton, Saskatchewan, Canada

Now
52 °F

Overcast.


Feels Like: 48 °F
Forecast: 47 / 68 °F
Wind: 12 mph from North

Location: The Pas

Current Time: Sep 21, 2014 at 1:57:54 AM

Latest Report: Sep 21, 2014 at 1:00 AM


Visibility: 15 mi

Pressure: 30.06 "Hg

Humidity: 88%

Dew point: 48 °F

Location of CreightonLocation

Historic Weather in Creighton — Graph

°F

Creighton temperature yesterday

Maximum temperature yesterday: 61 °F (at 1:00 PM)
Minimum temperature yesterday: 50 °F (at 12:00 AM)
Average temperature yesterday: 55 °F

Past Weeks' High & Low Weather Summary

 TemperatureHumidityPressure
High66 °F (Sep 15, 2:00 PM)100% (Sep 7, 3:00 AM)30.47 "Hg (Sep 7, 3:00 AM)
Low34 °F (Sep 12, 7:00 AM)36% (Sep 12, 4:00 PM)29.54 "Hg (Sep 18, 3:00 PM)
Average47 °F71%30.06 "Hg
* Reported Midnight between Sep 5 and Sep 6 — Midnight between Sep 20 and Sep 21, Creighton, Weather by CustomWeather, © 2014

Note: Actual official high and low records may vary slightly from our data, if they occured in-between our weather recording intervals... More about our weather records

Advertising

Creighton weather history for previous 24 hours

 ConditionsComfort  
Time TempWeatherWind HumidityBarometerVisibility
12:00 AM
Sep 21
54 °FOvercast.12 mph82%30.04 "Hg15 mi
11:00 PM
Sep 20
54 °FLow clouds.8 mph94%30.01 "Hg15 mi
10:00 PM55 °FMostly cloudy.9 mph88%29.98 "Hg15 mi
9:00 PM55 °FMostly cloudy.7 mph88%29.95 "Hg15 mi
8:00 PM57 °FOvercast.10 mph82%29.92 "Hg15 mi
7:00 PM57 °FOvercast.14 mph77%29.90 "Hg15 mi
6:00 PM59 °FOvercast.12 mph72%29.87 "Hg15 mi
5:00 PM61 °FOvercast.14 mph68%29.84 "Hg15 mi
4:00 PM57 °FOvercast.12 mph77%29.82 "Hg15 mi
3:00 PM59 °FMostly cloudy.17 mph72%29.78 "Hg15 mi
2:00 PM59 °FMostly cloudy.18 mph68%29.75 "Hg15 mi
1:00 PM61 °FPassing clouds.14 mph63%29.72 "Hg15 mi
12:00 PM59 °FPassing clouds.13 mph68%29.70 "Hg15 mi
8:00 AM50 °FPassing clouds.8 mph94%29.62 "Hg15 mi
7:00 AM50 °FPassing clouds.7 mph94%29.60 "Hg15 mi
6:00 AM50 °FPassing clouds.8 mph94%29.59 "Hg15 mi
5:00 AM50 °FPassing clouds.6 mph94%29.59 "Hg15 mi
4:00 AM50 °FPassing clouds.9 mph100%29.59 "Hg15 mi
3:00 AM50 °FOvercast.6 mph100%29.62 "Hg15 mi
2:00 AM50 °FSprinkles. Overcast.5 mph100%29.63 "Hg10 mi
1:00 AM52 °FSprinkles. Overcast.6 mph88%29.65 "Hg15 mi
Weather by CustomWeather, © 2014

See weather overviewHow to use our weather pages